Header for Extended Forecast Station List Page

Search by: ID | Name | Date | Parm | Value | Avg | % Avg
Sort by: ID | Name | Date | Parm | Value | Avg | % Avg

Enter search or view all records.

Click on id for station plot
#IDNameDateParmValueAvg% Avg
0MYKO3MCKAY CREEK-NEAR PILOT ROCK07-27-2020DISCHARGE (KAF)11116
1RIDI1WILLOW CREEK-RIRIE DAM07-27-2020INFLOW (KAF)4674
2WRMO3MALHEUR-WARM SPRINGS DAM07-27-2020INFLOW (KAF)75139
3TNAW1TEANAWAY-BELOW FORKS07-27-2020DISCHARGE (KAF)81078
4LWRI1LITTLE WOOD-LITTLE WOOD DAM07-27-2020INFLOW (KAF)81551
5BERO3MALHEUR-AGENCY VALLEY DAM07-27-2020INFLOW (KAF)98112
6HOTI1BRUNEAU-NEAR HOT SPRINGS07-27-2020DISCHARGE (KAF)102246
7GIBO3UMATILLA-NEAR GIBBON07-27-2020DISCHARGE (KAF)131397
8DEDI1DEADWOOD-NEAR LOWMAN07-27-2020INFLOW (KAF)142074
9SATI1ST MARIES-NEAR SANTA07-27-2020DISCHARGE (KAF)151884
10PDTO3UMATILLA-AT PENDLETON07-27-2020DISCHARGE (KAF)1515102
11MAGI1BIG WOOD-MAGIC DAM07-27-2020INFLOW (KAF)162858
12TCHW1WALLA WALLA-NEAR TOUCHET07-27-2020DISCHARGE (KAF)1813131
13HWRI1BIG LOST-AT HOWELL RANCH NEAR CHILLY07-27-2020DISCHARGE (KAF)203755
14BUDW1BUMPING-BUMPING LAKE DAM07-27-2020INFLOW (KAF)2422107
15ARDW1ENTIAT-NEAR ARDENVOIR07-27-2020DISCHARGE (KAF)253279
16KADW1KACHESS-KACHESS DAM07-27-2020INFLOW (KAF)2719142
17PIHI1PORTNEUF-AT POCATELLO07-27-2020DISCHARGE (KAF)303391
18MACI1BIG LOST-MACKAY RESERVOIR NEAR MACKAY07-27-2020INFLOW (KAF)3025119
19STRM8ST. REGIS-NEAR ST. REGIS07-27-2020DISCHARGE (KAF)3431112
20MONO3NF JOHN DAY-AT MONUMENT07-27-2020DISCHARGE (KAF)353695
21HALI1BIG WOOD-AT HAILEY07-27-2020DISCHARGE (KAF)375567
22KEDW1YAKIMA-KEECHELUS LAKE07-27-2020INFLOW (KAF)4229146
23WSRI1WEISER-NEAR WEISER07-27-2020DISCHARGE (KAF)505198
24EASW1YAKIMA-AT EASTON07-27-2020DISCHARGE (KAF)517073
25SERO3JOHN DAY-AT SERVICE CK07-27-2020DISCHARGE (KAF)546484
26OWYO3OWYHEE-OWYHEE DAM07-27-2020INFLOW (KAF)5752109
27UMAO3UMATILLA-NEAR UMATILLA07-27-2020DISCHARGE (KAF)6614470
28ARAI1SF BOISE-ANDERSON RANCH DAM07-27-2020INFLOW (KAF)677193
29RILW1TIETON-RIMROCK LAKE NEAR RIMROCK07-27-2020INFLOW (KAF)6865105
30DLGM8CLARK FORK-AT DEER LODGE07-27-2020DISCHARGE (KAF)7247151
31CLFW1NACHES-NEAR CLIFFDEL07-27-2020DISCHARGE (KAF)758391
32CLUW1CLE ELUM-CLE ELUM LAKE07-27-2020INFLOW (KAF)767699
33CSDI1NF PAYETTE-CASCADE DAM07-27-2020INFLOW (KAF)7769112
34RCCM8ROCK CREEK-NEAR CLINTON07-27-2020DISCHARGE (KAF)8666130
35CHEI1FALL RIVER-NEAR CHESTER07-27-2020DISCHARGE (KAF)8782106
36PRTI1PRIEST-NEAR PRIEST RIVER07-27-2020DISCHARGE (KAF)9017053
37HODO3HOOD-NEAR TUCKER BRIDGE07-27-2020DISCHARGE (KAF)9910397
38NACW1NACHES-NEAR NACHES07-27-2020DISCHARGE (KAF)10011388
39PATW1METHOW-NEAR PATEROS07-27-2020DISCHARGE (KAF)11112688
40LAUW1KETTLE-AT LAURIER07-27-2020DISCHARGE (KAF)13014987
41BIGI1BOISE-AT GLENWOOD BRIDGE07-27-2020DISCHARGE (KAF)13113597
42IPDI1HENRYS FORK-ISLAND PARK DAM07-27-2020INFLOW (KAF)13214392
43JLKW4SNAKE-JACKSON LAKE AT DAM07-27-2020INFLOW (KAF)13615389
44UNDW1WHITE SALMON-NEAR UNDERWOOD07-27-2020DISCHARGE (KAF)14515991
45PARW1YAKIMA-NEAR PARKER07-27-2020DISCHARGE (KAF)14917784
46TEAI1TETON-NEAR ST. ANTHONY07-27-2020DISCHARGE (KAF)15416096
47CHDW1CHELAN-LAKE CHELAN DAM07-27-2020INFLOW (KAF)15623167
48PITW1KLICKITAT-NEAR PITT07-27-2020DISCHARGE (KAF)16519286
49BONM8BLACKFOOT-NEAR BONNER07-27-2020DISCHARGE (KAF)16617495
50DRMM8CLARK FORK-NR DRUMMOND07-27-2020DISCHARGE (KAF)176MM
51PARI1BOISE-NEAR PARMA07-27-2020DISCHARGE (KAF)20822294
52BITM8BITTERROOT-NEAR MISSOULA07-27-2020DISCHARGE (KAF)22122997
53TRYO3GRANDE RONDE-TROY07-27-2020DISCHARGE (KAF)221203109
54HHWM8SF FLATHEAD-HUNGRY HORSE DAM07-27-2020INFLOW (KAF)23024992
55COEI1COEUR D ALENE-COEUR D ALENE LAKE07-27-2020INFLOW (KAF)243242100
56FCFM8NF FLATHEAD-NEAR COLUMBIA FALLS07-27-2020DISCHARGE (KAF)26430188
57PESW1WENATCHEE-AT PESHASTIN07-27-2020DISCHARGE (KAF)26827897
58WGCM8MF FLATHEAD-NEAR WEST GLACIER07-27-2020DISCHARGE (KAF)274249110
59DWRI1NF CLEARWATER-DWORSHAK DAM07-27-2020INFLOW (KAF)31137383
60ANTI1HENRYS FORK-AT ST. ANTHONY07-27-2020DISCHARGE (KAF)344322107
61MILI1SNAKE-AT MILNER07-27-2020DISCHARGE (KAF)353167211
62TONW1OKANOGAN-NEAR TONASKET07-27-2020DISCHARGE (KAF)370305121
63LUCI1BOISE-LUCKY PEAK DAM07-27-2020INFLOW (KAF)374MM
64SPOW1SPOKANE-AT SPOKANE07-27-2020DISCHARGE (KAF)398MM
65EMMI1PAYETTE-NEAR EMMETT07-27-2020DISCHARGE (KAF)418401104
66REXI1HENRYS FORK-AT REXBURG07-27-2020DISCHARGE (KAF)420383110
67KIOW1YAKIMA-AT KIONA07-27-2020DISCHARGE (KAF)43547791
68ABOM8CLARK FORK-ABOVE MISSOULA07-27-2020DISCHARGE (KAF)447386116
69ORFI1CLEARWATER-AT OROFINO07-27-2020DISCHARGE (KAF)47750994
70UMTW1YAKIMA-AT UMTANUM07-27-2020DISCHARGE (KAF)48550396
71LLKW1SPOKANE-AT LONGLAKE07-27-2020INFLOW (KAF)57062392
72BELM8CLARK FORK-BELOW MISSOULA07-27-2020DISCHARGE (KAF)666620107
73SNAI1SNAKE-AT BLACKFOOT07-27-2020DISCHARGE (KAF)726585124
74BFTI1SNAKE-NEAR BLACKFOOT07-27-2020DISCHARGE (KAF)727589123
75JKSW4SNAKE-NEAR JACKSON07-27-2020DISCHARGE (KAF)791736107
76SRGM8CLARK FORK-AT ST REGIS07-27-2020DISCHARGE (KAF)820812101
77ALPW4SNAKE-NEAR ALPINE07-27-2020DISCHARGE (KAF)86288098
78MODO3DESCHUTES-AT MOODY NR BIGGS07-27-2020DISCHARGE (KAF)1050111994
79SHYI1SNAKE-NEAR SHELLEY07-27-2020DISCHARGE (KAF)1067915117
80SIFI1SNAKE-AB EAGLE ROCK NR IDAHO FALLS07-27-2020DISCHARGE (KAF)11391140100
81WHBI1SALMON-AT WHITEBIRD07-27-2020DISCHARGE (KAF)1146122494
82CFMM8FLATHEAD-AT COLUMBIA FALLS07-27-2020DISCHARGE (KAF)11961195100
83PLDI1SF SNAKE-PALISADES DAM07-27-2020INFLOW (KAF)1203122398
84KERM8FLATHEAD-KERR DAM07-27-2020INFLOW (KAF)1343142494
85AFRI1SNAKE-AMERICAN FALLS RESERVOIR07-27-2020INFLOW (KAF)13451254107
86HEII1SNAKE-NEAR HEISE07-27-2020DISCHARGE (KAF)1418150394
87LYDM8KOOTENAI-LIBBY DAM07-27-2020INFLOW (KAF)1566166694
88SPDI1CLEARWATER-AT SPALDING07-27-2020DISCHARGE (KAF)17751050169
89SWAI1SNAKE-BELOW SWAN FALLS07-27-2020DISCHARGE (KAF)2116213799
90LEOI1KOOTENAI-AT LEONIA07-27-2020DISCHARGE (KAF)23952191109
91NOXM8CLARK FORK-NOXON RAPIDS DAM07-27-2020INFLOW (KAF)30202953102
92WEII1SNAKE-AT WEISER07-27-2020DISCHARGE (KAF)32083120103
93CABI1CLARK FORK-CABINET GORGE DAM07-27-2020INFLOW (KAF)33103126106
94BRNI1SNAKE-BROWNLEE DAM07-27-2020INFLOW (KAF)33413176105
95ALFW1PEND OREILLE-ALBENI FALLS DAM07-27-2020INFLOW (KAF)3344342798
96ANAW1SNAKE-NEAR ANATONE07-27-2020DISCHARGE (KAF)4649473798
97IHDW1SNAKE-ICE HARBOR DAM07-27-2020INFLOW (KAF)64045813110
98LGSW1SNAKE-LITTLE GOOSE DAM07-27-2020INFLOW (KAF)64135900109
99LMNW1SNAKE-LOWER MONUMENTAL DAM07-27-2020INFLOW (KAF)64185908109
100LGDW1SNAKE-LOWER GRANITE DAM07-27-2020INFLOW (KAF)64245867110
101CIBW1COLUMBIA-AT INTL BOUNDARY07-27-2020DISCHARGE (KAF)21682MM
102CHJW1COLUMBIA-CHIEF JOSEPH DAM07-27-2020INFLOW (KAF)2182220298108
103WELW1COLUMBIA-WELLS DAM07-27-2020INFLOW (KAF)2233420557109
104GCDW1COLUMBIA-GRAND COULEE DAM07-27-2020INFLOW (KAF)2244420595109
105RRHW1COLUMBIA-ROCKY REACH DAM07-27-2020INFLOW (KAF)2265921063108
106PRWW1COLUMBIA-PRIEST RAPIDS DAM07-27-2020INFLOW (KAF)2300421392108
107WANW1COLUMBIA-WANAPUM DAM07-27-2020INFLOW (KAF)2301820957110
108MCDW1COLUMBIA-MCNARY DAM07-27-2020INFLOW (KAF)2992828139106
109JDAO3COLUMBIA-JOHN DAY DAM07-27-2020INFLOW (KAF)3036428603106
110TDAO3COLUMBIA-THE DALLES DAM07-27-2020INFLOW (KAF)3092429293106
111BONO3COLUMBIA-BONNEVILLE DAM07-27-2020INFLOW (KAF)3134030393103
112BFEI1KOOTENAI-AT BONNERS FERRY07-27-2020STAGE (FT)MMM
113HOPI1PEND OREILLE-PEND OREILLE LAKE NR HOPE07-27-2020LAKE ELEVATION (FT)MMM
114SJMI1ST JOE-AT ST MARIES07-27-2020STAGE (FT)MMM
115BULO3BULLY CREEK-BULLY CREEK DAM07-27-2020INFLOW (KAF)M0M